Atlanta, GA

10:26 AM EST on February 25, 2017 (GMT -0500)
Fulton County-Brown

Weather History for KFTY - October, 2013

Change the Weather History Date:

Saturday, October 26, 2013

  Actual Average Record
Temperature  
Mean Temperature 46 °F 59 °F  
Max Temperature 61 °F 70 °F 86 °F (2010)
Min Temperature 30 °F 48 °F 30 °F (2013)
Degree Days  
Heating Degree Days 19 7  
Month to date heating degree days 96 96  
Since 1 July heating degree days 96 106  
Cooling Degree Days 0 1  
Month to date cooling degree days 54 51  
Year to date cooling degree days 1616 1732  
Moisture  
Dew Point 34 °F    
Average Humidity 67    
Maximum Humidity 100    
Minimum Humidity 33    
Precipitation  
Precipitation 0.00 in 0.10 in 2.21 in (1977)
Month to date precipitation 3.44 3.10  
Year to date precipitation 42.50  
Snow  
Snow 0.00 in - - ()
Month to date snowfall 0.0  
Since 1 July snowfall 0.0  
Since 1 September snowfall 0.0  
Snow Depth 0.00 in    
Sea Level Pressure  
Sea Level Pressure 30.27 in    
Wind  
Wind Speed 2 mph (SW)    
Max Wind Speed 10 mph    
Max Gust Speed 15 mph    
Visibility 9 miles    
Events      
T = Trace of Precipitation, MM = Missing Value Source: NWS Daily Summary

Daily Weather History Graph

Daily Weather History Graph

Search for Another Location

Airport or City:

Trip Planner

Search our weather history database for the weather conditions in past years. The results will help you decide how hot, cold, wet, or windy it might be!

Date:

Astronomy

Oct. 26, 2013 Rise Set
Actual Time 7:52 AM EDT 6:51 PM EDT
Civil Twilight 7:26 AM EDT 7:16 PM EDT
Nautical Twilight 6:57 AM EDT 7:46 PM EDT
Astronomical Twilight 6:28 AM EDT 8:15 PM EDT
Moon 12:15 AM EDT (10/26) 2:05 PM EDT (10/26)
Length of Visible Light 11h 50m
Length of Day
10h 59m
Waning Gibbous, 53% of the Moon is Illuminated
Oct 26
Waning Gibbous
Oct 26
Last Quarter
Nov 3
New
Nov 10
First Quarter
Nov 17
Full

Hourly Weather History & Observations

Time (EDT) Temp. Windchill Dew Point Humidity Pressure Visibility Wind Dir Wind Speed Gust Speed Precip Events Conditions
12:53 AM 33.1 °F - 32.0 °F 96% 30.35 in 10.0 mi Calm Calm - N/A   Clear
1:53 AM 33.1 °F - 30.9 °F 92% 30.33 in 10.0 mi Calm Calm - N/A   Clear
2:53 AM 33.1 °F - 30.9 °F 92% 30.32 in 10.0 mi Calm Calm - N/A   Clear
3:53 AM 32.0 °F - 30.0 °F 92% 30.31 in 10.0 mi Calm Calm - N/A   Clear
4:53 AM 32.0 °F - 30.0 °F 92% 30.31 in 9.0 mi Calm Calm - N/A   Clear
5:18 AM 30.2 °F - 30.2 °F 100% 30.31 in 1.8 mi Calm Calm - N/A   Clear
5:27 AM 30.2 °F - 30.2 °F 100% 30.31 in 3.0 mi Calm Calm - N/A   Clear
5:53 AM 30.9 °F - 30.0 °F 96% 30.32 in 10.0 mi Calm Calm - N/A   Clear
6:53 AM 32.0 °F - 30.0 °F 92% 30.32 in 10.0 mi Calm Calm - N/A   Clear
7:53 AM 30.9 °F - 28.9 °F 92% 30.33 in 8.0 mi Calm Calm - N/A   Clear
8:53 AM 35.1 °F - 32.0 °F 89% 30.35 in 10.0 mi Calm Calm - N/A   Clear
9:53 AM 42.1 °F 39.2 °F 35.1 °F 76% 30.35 in 10.0 mi NNE 4.6 mph - N/A   Clear
10:53 AM 46.9 °F - 35.1 °F 63% 30.34 in 10.0 mi Calm Calm - N/A   Clear
11:53 AM 51.1 °F - 34.0 °F 52% 30.33 in 10.0 mi SE 4.6 mph - N/A   Clear
12:53 PM 55.0 °F - 34.0 °F 45% 30.30 in 10.0 mi Variable 4.6 mph - N/A   Clear
1:53 PM 57.0 °F - 30.9 °F 37% 30.26 in 10.0 mi Calm Calm - N/A   Clear
2:53 PM 59.0 °F - 30.0 °F 33% 30.23 in 10.0 mi WNW 4.6 mph - N/A   Clear
3:53 PM 59.0 °F - 30.9 °F 35% 30.22 in 10.0 mi SW 5.8 mph - N/A   Clear
4:53 PM 59.0 °F - 32.0 °F 36% 30.21 in 10.0 mi SSW 5.8 mph - N/A   Clear
5:53 PM 57.9 °F - 33.1 °F 39% 30.19 in 10.0 mi SSW 4.6 mph - N/A   Clear
6:53 PM 57.0 °F - 36.0 °F 45% 30.18 in 10.0 mi Calm Calm - N/A   Clear
7:53 PM 48.9 °F - 43.0 °F 80% 30.19 in 10.0 mi Calm Calm - N/A   Clear
8:53 PM 46.9 °F - 42.1 °F 83% 30.18 in 10.0 mi Calm Calm - N/A   Clear
9:53 PM 45.0 °F - 42.1 °F 90% 30.19 in 10.0 mi Calm Calm - N/A   Clear
10:53 PM 45.0 °F - 41.0 °F 86% 30.19 in 10.0 mi Calm Calm - N/A   Clear
11:53 PM 44.1 °F - 41.0 °F 89% 30.19 in 9.0 mi Calm Calm - N/A   Clear